This is the latest recevied weather packets stored in our database for station/object WV6L-13. If no packets are shown the sender has not sent any weather packets the latest 10 day(s).
| Time | Temp. | Humidity | Pressure | Rain* | Wind** | Luminosity | Snow |
|---|---|---|---|---|---|---|---|
| 1778145892 | 13.89° C | 41% | 928.3 hPa | - | - | - | - |
| 1778145593 | 13.89° C | 40% | 928.2 hPa | - | - | - | - |
| 1778145292 | 14.44° C | 40% | 928.2 hPa | - | - | - | - |
| 1778144992 | 15° C | 39% | 928.3 hPa | - | - | - | - |
| 1778144692 | 15.56° C | 39% | 928.3 hPa | - | - | - | - |
| 1778144393 | 15° C | 39% | 928.2 hPa | - | - | - | - |
| 1778144093 | 15.56° C | 39% | 928.2 hPa | - | - | - | - |
| 1778143792 | 15.56° C | 39% | 928.2 hPa | - | - | - | - |
| 1778143492 | 15.56° C | 39% | 928.3 hPa | - | - | - | - |
| 1778143192 | 15° C | 39% | 928.3 hPa | - | - | - | - |
| 1778142892 | 15° C | 40% | 928.1 hPa | - | - | - | - |
| 1778142593 | 15.56° C | 40% | 928.1 hPa | - | - | - | - |
| 1778142292 | 15.56° C | 39% | 928.4 hPa | - | - | - | - |
| 1778141992 | 15.56° C | 39% | 928.3 hPa | - | - | - | - |
| 1778141692 | 15.56° C | 38% | 928.2 hPa | - | - | - | - |
| 1778141392 | 15° C | 38% | 928.1 hPa | - | - | - | - |
| 1778141093 | 15.56° C | 38% | 928.2 hPa | - | - | - | - |
| 1778140792 | 15.56° C | 37% | 928.1 hPa | - | - | - | - |
| 1778140492 | 16.11° C | 38% | 928.2 hPa | - | - | - | - |
| 1778140192 | 16.11° C | 38% | 928.1 hPa | - | - | - | - |
| 1778139893 | 16.11° C | 37% | 927.9 hPa | - | - | - | - |
| 1778139592 | 16.11° C | 37% | 928 hPa | - | - | - | - |
| 1778139292 | 16.67° C | 37% | 927.8 hPa | - | - | - | - |
| 1778138993 | 16.11° C | 38% | 927.9 hPa | - | - | - | - |
| 1778138692 | 16.11° C | 37% | 927.9 hPa | - | - | - | - |
* Rain since midnight (hover to see other rain measurements)
** Current wind speed in m/s (hover to see current wind gust speed)